Lawton, OK

6:03 AM CDT on October 17, 2019 (GMT -0500)
Lawton-Fort Sill Regional

Weather History for KLAW - September, 2019

Change the Weather History Date:

Monday, September 23, 2019

  Actual Average Record
Temperature  
Mean Temperature 79 °F 72 °F  
Max Temperature 86 °F 85 °F 101 °F (1926)
Min Temperature 72 °F 59 °F 40 °F (1989)
Degree Days  
Heating Degree Days 0 1  
Month to date heating degree days 0 2  
Since 1 July heating degree days 0 2  
Cooling Degree Days 14 8  
Month to date cooling degree days 387 264  
Year to date cooling degree days 2362 2180  
Growing Degree Days 29 (Base 50)    
Moisture  
Dew Point 73 °F    
Average Humidity 83    
Maximum Humidity 100    
Minimum Humidity 65    
Precipitation  
Precipitation 0.01 in 0.07 in 2.76 in (1970)
Month to date precipitation 2.10 2.62  
Year to date precipitation 25.01 23.30  
Sea Level Pressure  
Sea Level Pressure 29.99 in    
Wind  
Wind Speed 5 mph (ESE)    
Max Wind Speed 10 mph    
Max Gust Speed 12 mph    
Visibility 10 miles    
Events      
T = Trace of Precipitation, MM = Missing Value Source: NWS Daily Summary

Daily Weather History Graph

Daily Weather History Graph

Search for Another Location

Airport or City:

Astronomy

Sep. 23, 2019 Rise Set
Actual Time 7:22 AM CDT 7:29 PM CDT
Civil Twilight 6:57 AM CDT 7:54 PM CDT
Nautical Twilight 6:27 AM CDT 8:23 PM CDT
Astronomical Twilight 5:58 AM CDT 8:53 PM CDT
Moon 1:22 AM CDT (9/23) 4:08 PM CDT (9/23)
Length of Visible Light 12h 57m
Length of Day
12h 06m
Waning Crescent, 33% of the Moon is Illuminated
Sep 23
Waning Crescent
Sep 28
New
Oct 5
First Quarter
Oct 13
Full
Oct 21
Last Quarter

Hourly Weather History & Observations

Time (CDT) Temp. Heat Index Dew Point Humidity Pressure Visibility Wind Dir Wind Speed Gust Speed Precip Events Conditions
12:53 AM 73.9 °F - 73.0 °F 97% 29.97 in 10.0 mi NNE 4.6 mph - N/A   Clear
1:53 AM 73.9 °F - 73.0 °F 97% 29.97 in 10.0 mi NNE 3.5 mph - N/A   Partly Cloudy
2:53 AM 73.0 °F - 72.0 °F 96% 29.97 in 10.0 mi Calm Calm - N/A   Partly Cloudy
3:53 AM 73.0 °F - 72.0 °F 96% 29.96 in 10.0 mi Calm Calm - N/A   Scattered Clouds
4:53 AM 73.0 °F - 72.0 °F 96% 29.97 in 9.0 mi NE 3.5 mph - N/A   Clear
5:53 AM 72.0 °F - 71.1 °F 97% 29.98 in 9.0 mi Calm Calm - N/A   Clear
6:53 AM 72.0 °F - 71.1 °F 97% 30.01 in 8.0 mi South 3.5 mph - N/A   Mostly Cloudy
7:53 AM 72.0 °F - 71.1 °F 97% 30.01 in 8.0 mi East 3.5 mph - N/A   Clear
8:53 AM 73.9 °F - 73.0 °F 97% 30.03 in 10.0 mi NE 3.5 mph - N/A   Mostly Cloudy
9:53 AM 77.0 °F - 73.9 °F 90% 30.04 in 10.0 mi East 3.5 mph - N/A   Overcast
10:53 AM 78.1 °F - 73.0 °F 84% 30.05 in 10.0 mi ESE 8.1 mph - N/A   Overcast
11:25 AM 78.1 °F - 73.0 °F 84% 30.09 in 10.0 mi SSE 5.8 mph - N/A   Overcast
11:53 AM 78.1 °F - 73.0 °F 84% 30.04 in 10.0 mi SE 4.6 mph - N/A   Overcast
12:02 PM 79.0 °F - 73.0 °F 82% 30.07 in 10.0 mi Variable 3.5 mph - N/A   Mostly Cloudy
12:53 PM 81.0 °F 86.2 °F 73.9 °F 79% 30.03 in 10.0 mi SE 5.8 mph - N/A   Partly Cloudy
1:53 PM 82.9 °F 89.4 °F 73.9 °F 74% 29.99 in 10.0 mi East 6.9 mph - N/A   Mostly Cloudy
2:04 PM 82.9 °F 89.4 °F 73.9 °F 74% 30.02 in 10.0 mi SE 6.9 mph - N/A   Scattered Clouds
2:53 PM 86.0 °F 93.8 °F 73.9 °F 67% 29.97 in 10.0 mi ESE 8.1 mph - N/A   Partly Cloudy
3:53 PM 84.9 °F 92.1 °F 73.9 °F 69% 29.96 in 10.0 mi SSE 8.1 mph - N/A   Mostly Cloudy
4:53 PM 84.0 °F 89.0 °F 71.1 °F 65% 29.95 in 10.0 mi East 5.8 mph - N/A   Mostly Cloudy
5:53 PM 84.0 °F 90.2 °F 73.0 °F 69% 29.94 in 10.0 mi East 5.8 mph - N/A   Partly Cloudy
6:53 PM 82.9 °F 88.8 °F 73.0 °F 72% 29.93 in 10.0 mi ESE 6.9 mph - N/A   Scattered Clouds
7:53 PM 80.1 °F 84.5 °F 73.9 °F 81% 29.94 in 10.0 mi East 3.5 mph - N/A   Partly Cloudy
8:53 PM 79.0 °F - 73.9 °F 84% 29.94 in 10.0 mi ENE 5.8 mph - N/A   Scattered Clouds
9:53 PM 79.0 °F - 75.0 °F 88% 29.95 in 10.0 mi SE 9.2 mph - N/A   Clear
10:53 PM 78.1 °F - 73.9 °F 87% 29.95 in 10.0 mi ESE 5.8 mph - N/A   Scattered Clouds
11:53 PM 77.0 °F - 73.0 °F 88% 29.94 in 10.0 mi ESE 4.6 mph - N/A   Mostly Cloudy